User: anonymous
Location: Oshawa
(43.9000°N, 78.8670°W)
Time: 19:29:53
(UTC-04:00)
Language:

CARTOSAT-1 - Orbit

View from above orbital plane
View from above orbital plane
View from above satellite
View from above satellite

Ground track
Ground track

The orbit data is extracted from the following two-line orbital elements,

1 28649U 05017A   14110.79726657 -.00012560  00000-0 -15263-2 0  1287
2 28649 097.8356 185.8351 0002258 115.3185 244.6931 14.83440122484982
Epoch (UTC): 20 April 2014 19:08:03
Eccentricity: 0.0002258
inclination: 97.8356°
perigee height: 617 km
apogee height: 620 km
right ascension of ascending node: 185.8351°
argument of perigee: 115.3185°
revolutions per day: 14.83440122
mean anomaly at epoch: 244.6931°
orbit number at epoch: 48498

The dashed part of the orbit path shows where the satellite is in the earth's shadow,  

DLR